| time (UTC) | temp F | wind direction | speed MPH | gust MPH | rain 1hr in | rain 24hr in | rain mn in | humidity % | barometer mb |
| 20260508190012 | 49 | 334 | 13.0 | 20.0 | 0.00 | 0.00 | 0.00 | 48 | 1009.4 |
| 20260508184517 | 49 | 338 | 7.0 | 13.0 | 0.00 | 0.00 | 0.00 | 48 | 1009.5 |
| 20260508183010 | 49 | 335 | 1.0 | 16.0 | 0.00 | 0.00 | 0.00 | 45 | 1009.6 |
| 20260508181509 | 48 | 293 | 13.0 | 22.0 | 0.00 | 0.00 | 0.00 | 43 | 1009.8 |
| 20260508180008 | 49 | 320 | 10.0 | 15.0 | 0.00 | 0.00 | 0.00 | 46 | 1009.7 |
| 20260508174509 | 48 | 291 | 8.0 | 20.0 | 0.00 | 0.00 | 0.00 | 46 | 1009.9 |
| 20260508173006 | 49 | 310 | 9.0 | 23.0 | 0.00 | 0.00 | 0.00 | 48 | 1010.0 |
| 20260508171507 | 49 | 241 | 2.0 | 7.0 | 0.00 | 0.00 | 0.00 | 45 | 1010.0 |
| 20260508170006 | 48 | 285 | 6.0 | 23.0 | 0.00 | 0.00 | 0.00 | 45 | 1010.0 |
| 20260508164507 | 48 | 316 | 14.0 | 20.0 | 0.00 | 0.00 | 0.00 | 51 | 1010.1 |
| 20260508163008 | 48 | 265 | 9.0 | 22.0 | 0.00 | 0.00 | 0.00 | 46 | 1010.0 |
| 20260508161504 | 48 | 301 | 11.0 | 23.0 | 0.00 | 0.00 | 0.00 | 46 | 1009.8 |
| 20260508160003 | 49 | 290 | 12.0 | 22.0 | 0.00 | 0.00 | 0.00 | 44 | 1009.6 |
| 20260508154502 | 50 | 288 | 6.0 | 14.0 | 0.00 | 0.00 | 0.00 | 43 | 1009.4 |
| 20260508153004 | 49 | 354 | 4.0 | 20.0 | 0.00 | 0.00 | 0.00 | 44 | 1009.3 |
| 20260508151601 | 48 | 325 | 5.0 | 21.0 | 0.00 | 0.00 | 0.00 | 43 | 1009.5 |
| 20260508150101 | 49 | 260 | 5.0 | 26.0 | 0.00 | 0.00 | 0.00 | 43 | 1009.4 |
| 20260508144559 | 49 | 283 | 13.0 | 20.0 | 0.00 | 0.00 | 0.00 | 39 | 1009.3 |
| 20260508143116 | 50 | 291 | 4.0 | 20.0 | 0.00 | 0.00 | 0.00 | 40 | 1009.3 |
| 20260508141600 | 50 | 145 | 1.0 | 9.0 | 0.00 | 0.00 | 0.00 | 38 | 1009.4 |
| 20260508140112 | 50 | 307 | 2.0 | 8.0 | 0.00 | 0.00 | 0.00 | 39 | 1009.5 |
| 20260508134551 | 49 | 320 | 5.0 | 18.0 | 0.00 | 0.00 | 0.00 | 40 | 1009.6 |
| 20260508133048 | 48 | 335 | 4.0 | 11.0 | 0.00 | 0.00 | 0.00 | 47 | 1009.7 |
| 20260508131545 | 47 | 269 | 5.0 | 14.0 | 0.00 | 0.00 | 0.00 | 46 | 1009.8 |
| 20260508130042 | 46 | 60 | 3.0 | 12.0 | 0.00 | 0.00 | 0.00 | 51 | 1010.0 |
| 20260508124537 | 45 | 351 | 0.0 | 3.0 | 0.00 | 0.00 | 0.00 | 62 | 1009.9 |
| 20260508123036 | 44 | 304 | 2.0 | 5.0 | 0.00 | 0.00 | 0.00 | 64 | 1009.9 |
| 20260508121533 | 43 | 321 | 2.0 | 5.0 | 0.00 | 0.00 | 0.00 | 66 | 1010.0 |
| 20260508120028 | 42 | 318 | 0.0 | 4.0 | 0.00 | 0.00 | 0.00 | 71 | 1010.0 |
| 20260508114524 | 41 | 8 | 0.0 | 2.0 | 0.00 | 0.00 | 0.00 | 79 | 1010.0 |
| 20260508113021 | 39 | 14 | 0.0 | 1.0 | 0.00 | 0.00 | 0.00 | 84 | 1009.9 |
| 20260508111517 | 36 | 354 | 0.0 | 1.0 | 0.00 | 0.00 | 0.00 | 89 | 1009.7 |
| 20260508110028 | 34 | 20 | 0.0 | 2.0 | 0.00 | 0.00 | 0.00 | 90 | 1009.7 |
| 20260508104516 | 34 | 36 | 0.0 | 2.0 | 0.00 | 0.00 | 0.00 | 92 | 1009.6 |
| 20260508103033 | 33 | 21 | 0.0 | 2.0 | 0.00 | 0.00 | 0.00 | 93 | 1009.4 |
| 20260508101511 | 32 | 352 | 0.0 | 2.0 | 0.00 | 0.00 | 0.00 | 93 | 1009.3 |
| 20260508100007 | 32 | 347 | 0.0 | 1.0 | 0.00 | 0.00 | 0.00 | 93 | 1009.1 |
| 20260508094506 | 32 | 25 | 0.0 | 3.0 | 0.00 | 0.00 | 0.00 | 93 | 1009.0 |
| 20260508093007 | 31 | 1 | 0.0 | 0.0 | 0.00 | 0.00 | 0.00 | 92 | 1008.9 |
| 20260508091502 | 31 | 1 | 0.0 | 0.0 | 0.00 | 0.00 | 0.00 | 92 | 1008.8 |
| 20260508090002 | 31 | 195 | 0.0 | 0.0 | 0.00 | 0.00 | 0.00 | 92 | 1008.7 |
| 20260508084559 | 31 | 195 | 0.0 | 0.0 | 0.00 | 0.00 | 0.00 | 92 | 1008.7 |
| 20260508081613 | 31 | 195 | 0.0 | 1.0 | 0.00 | 0.00 | 0.00 | 91 | 1008.6 |
| 20260508080100 | 33 | 24 | 0.0 | 2.0 | 0.00 | 0.00 | 0.00 | 91 | 1008.4 |
| 20260508074558 | 31 | 153 | 0.0 | 0.0 | 0.00 | 0.00 | 0.00 | 90 | 1008.3 |
| 20260508073053 | 31 | 153 | 0.0 | 0.0 | 0.00 | 0.00 | 0.00 | 90 | 1008.2 |
| 20260508071550 | 32 | 153 | 0.0 | 0.0 | 0.00 | 0.00 | 0.00 | 89 | 1008.2 |
| 20260508070048 | 32 | 110 | 0.0 | 1.0 | 0.00 | 0.00 | 0.00 | 89 | 1008.3 |
| 20260508064546 | 33 | 49 | 0.0 | 1.0 | 0.00 | 0.00 | 0.00 | 88 | 1008.4 |
| 20260508063045 | 34 | 32 | 0.0 | 1.0 | 0.00 | 0.00 | 0.00 | 89 | 1008.3 |
| 20260508061543 | 33 | 41 | 0.0 | 1.0 | 0.00 | 0.00 | 0.00 | 89 | 1008.3 |
| 20260508060055 | 34 | 174 | 0.0 | 0.0 | 0.00 | 0.00 | 0.00 | 87 | 1008.3 |
| 20260508054610 | 34 | 174 | 0.0 | 0.0 | 0.00 | 0.00 | 0.00 | 86 | 1008.5 |
| 20260508053046 | 34 | 174 | 0.0 | 1.0 | 0.00 | 0.00 | 0.00 | 84 | 1008.7 |
| 20260508051531 | 34 | 172 | 0.0 | 0.0 | 0.00 | 0.00 | 0.00 | 83 | 1008.9 |
| 20260508050034 | 34 | 172 | 0.0 | 0.0 | 0.00 | 0.00 | 0.00 | 79 | 1008.9 |
| 20260508044529 | 35 | 172 | 0.0 | 0.0 | 0.00 | 0.00 | 0.00 | 78 | 1008.9 |
| 20260508043033 | 36 | 172 | 0.0 | 1.0 | 0.00 | 0.00 | 0.00 | 75 | 1008.9 |
| 20260508041522 | 36 | 172 | 0.0 | 0.0 | 0.00 | 0.00 | 0.00 | 75 | 1008.9 |
| 20260508040018 | 36 | 172 | 0.0 | 1.0 | 0.00 | 0.00 | 0.00 | 73 | 1008.9 |
| 20260508034518 | 37 | 200 | 0.0 | 1.0 | 0.00 | 0.00 | 0.00 | 72 | 1008.8 |
| 20260508033015 | 37 | 171 | 0.0 | 1.0 | 0.00 | 0.00 | 0.00 | 71 | 1008.8 |
| 20260508031511 | 38 | 196 | 0.0 | 1.0 | 0.00 | 0.00 | 0.00 | 67 | 1008.7 |
| 20260508030009 | 40 | 267 | 0.0 | 1.0 | 0.00 | 0.00 | 0.00 | 61 | 1008.7 |
| 20260508024507 | 41 | 252 | 0.0 | 1.0 | 0.00 | 0.01 | 0.00 | 58 | 1008.8 |
| 20260508023006 | 43 | 254 | 0.0 | 1.0 | 0.00 | 0.01 | 0.00 | 54 | 1008.7 |
| 20260508021505 | 43 | 254 | 0.0 | 1.0 | 0.00 | 0.01 | 0.00 | 53 | 1008.6 |
| 20260508020004 | 44 | 275 | 0.0 | 1.0 | 0.00 | 0.01 | 0.00 | 52 | 1008.4 |
| 20260508014504 | 46 | 286 | 0.0 | 2.0 | 0.00 | 0.02 | 0.00 | 48 | 1008.3 |
| 20260508013001 | 47 | 335 | 1.0 | 7.0 | 0.00 | 0.02 | 0.00 | 44 | 1008.2 |
| 20260508011616 | 48 | 308 | 2.0 | 7.0 | 0.00 | 0.02 | 0.00 | 44 | 1008.2 |
| 20260508004559 | 49 | 287 | 3.0 | 13.0 | 0.00 | 0.03 | 0.00 | 43 | 1007.7 |
| 20260508003058 | 50 | 296 | 4.0 | 11.0 | 0.00 | 0.03 | 0.00 | 42 | 1007.5 |
| 20260508001601 | 51 | 325 | 5.0 | 16.0 | 0.00 | 0.03 | 0.00 | 45 | 1007.2 |
| 20260508000057 | 51 | 295 | 10.0 | 17.0 | 0.00 | 0.03 | 0.00 | 42 | 1007.2 |
| 20260507234600 | 52 | 301 | 9.0 | 19.0 | 0.00 | 0.04 | 0.00 | 39 | 1006.9 |
| 20260507233056 | 52 | 290 | 2.0 | 10.0 | 0.00 | 0.04 | 0.00 | 38 | 1006.6 |
| 20260507231556 | 53 | 288 | 4.0 | 13.0 | 0.00 | 0.04 | 0.00 | 40 | 1006.5 |
| 20260507230055 | 54 | 330 | 6.0 | 13.0 | 0.00 | 0.04 | 0.00 | 37 | 1006.4 |
| 20260507224554 | 54 | 293 | 6.0 | 13.0 | 0.00 | 0.05 | 0.00 | 36 | 1006.4 |
| 20260507223055 | 55 | 308 | 9.0 | 19.0 | 0.00 | 0.05 | 0.00 | 34 | 1006.1 |
| 20260507221552 | 55 | 305 | 3.0 | 23.0 | 0.00 | 0.05 | 0.00 | 35 | 1006.1 |
| 20260507220054 | 55 | 312 | 4.0 | 15.0 | 0.00 | 0.05 | 0.00 | 34 | 1006.1 |
| 20260507214552 | 55 | 304 | 6.0 | 23.0 | 0.00 | 0.12 | 0.00 | 33 | 1006.0 |
| 20260507213049 | 56 | 321 | 4.0 | 11.0 | 0.00 | 0.12 | 0.00 | 32 | 1006.1 |
| 20260507211554 | 56 | 272 | 4.0 | 13.0 | 0.00 | 0.12 | 0.00 | 33 | 1006.0 |
| 20260507210048 | 56 | 310 | 3.0 | 15.0 | 0.00 | 0.12 | 0.00 | 35 | 1006.1 |
| 20260507204547 | 54 | 295 | 10.0 | 23.0 | 0.00 | 0.15 | 0.00 | 38 | 1006.0 |
| 20260507203047 | 55 | 284 | 2.0 | 23.0 | 0.00 | 0.15 | 0.00 | 34 | 1005.8 |
| 20260507201545 | 55 | 298 | 4.0 | 21.0 | 0.00 | 0.15 | 0.00 | 39 | 1005.8 |
| 20260507200045 | 54 | 297 | 5.0 | 19.0 | 0.00 | 0.15 | 0.00 | 37 | 1006.0 |
| 20260507194547 | 54 | 296 | 11.0 | 26.0 | 0.00 | 0.18 | 0.00 | 41 | 1006.1 |
| 20260507193043 | 54 | 304 | 19.0 | 28.0 | 0.00 | 0.18 | 0.00 | 37 | 1005.9 |
| 20260507191541 | 53 | 295 | 11.0 | 18.0 | 0.00 | 0.18 | 0.00 | 44 | 1006.2 |